FW4334 Weather Reports


Display with metric or nautical units.
time (UTC)temp
F
wind
direction
speed
MPH
gust
MPH
rain 1hr
in
rain 24hr
in
rain mn
in
humidity
%
barometer
mb
20260831183002 91 79 1.0 4.0 0.00 0.00 0.00 73 1017.6
20260831182503 91 32 2.0 5.0 0.00 0.00 0.00 73 1017.5
20260831182003 91 30 1.0 5.0 0.00 0.00 0.00 74 1017.6
20260831181503 91 32 1.0 6.0 0.00 0.00 0.00 73 1017.7
20260831181002 91 59 2.0 6.0 0.00 0.00 0.00 72 1017.7
20260831180600 92 65 1.0 4.0 0.00 0.00 0.00 71 1017.6
20260831180058 92 80 0.0 3.0 0.00 0.00 0.00 72 1017.7
20260831175559 91 89 0.0 4.0 0.00 0.00 0.00 74 1017.7
20260831175056 91 105 0.0 3.0 0.00 0.00 0.00 74 1017.8
20260831174559 91 75 0.0 2.0 0.00 0.00 0.00 69 1017.8
20260831174056 91 78 0.0 3.0 0.00 0.00 0.00 71 1018.0
20260831173559 91 74 0.0 3.0 0.00 0.00 0.00 71 1018.2
20260831173056 91 36 1.0 3.0 0.00 0.00 0.00 71 1018.2
20260831172558 91 92 1.0 3.0 0.00 0.00 0.00 73 1018.3
20260831172054 91 37 0.0 4.0 0.00 0.00 0.00 73 1018.5
20260831171556 91 89 1.0 3.0 0.00 0.00 0.00 72 1018.3
20260831171054 91 74 1.0 3.0 0.00 0.00 0.00 72 1018.4
20260831170554 91 50 0.0 4.0 0.00 0.00 0.00 73 1018.4
20260831170053 92 26 1.0 3.0 0.00 0.00 0.00 71 1018.5
20260831165550 91 92 0.0 3.0 0.00 0.00 0.00 70 1018.4
20260831165049 91 123 0.0 3.0 0.00 0.00 0.00 66 1018.5
20260831164549 92 70 0.0 2.0 0.00 0.00 0.00 68 1018.6
20260831164050 91 62 0.0 2.0 0.00 0.00 0.00 69 1018.5
20260831163545 90 97 0.0 4.0 0.00 0.00 0.00 70 1018.6
20260831163047 90 122 1.0 4.0 0.00 0.00 0.00 69 1018.6
20260831162544 90 51 0.0 4.0 0.00 0.00 0.00 69 1018.7
20260831162043 90 114 1.0 4.0 0.00 0.00 0.00 70 1018.7
20260831161541 90 53 0.0 2.0 0.00 0.00 0.00 71 1018.7
20260831161040 90 92 0.0 2.0 0.00 0.00 0.00 71 1018.8
20260831160641 89 56 0.0 2.0 0.00 0.00 0.00 72 1018.8
20260831160055 89 126 0.0 4.0 0.00 0.00 0.00 72 1018.8
20260831155537 89 118 1.0 3.0 0.00 0.00 0.00 73 1019.0
20260831155038 89 76 0.0 4.0 0.00 0.00 0.00 75 1019.1
20260831154537 89 69 0.0 2.0 0.00 0.00 0.00 74 1019.1
20260831154041 89 44 0.0 2.0 0.00 0.00 0.00 74 1019.1
20260831153539 89 116 0.0 3.0 0.00 0.00 0.00 74 1019.1
20260831153111 88 116 0.0 3.0 0.00 0.00 0.00 76 1019.1
20260831152533 88 71 0.0 2.0 0.00 0.00 0.00 77 1019.3
20260831152032 87 64 0.0 2.0 0.00 0.00 0.00 78 1019.2
20260831151531 87 47 0.0 1.0 0.00 0.00 0.00 79 1019.2
20260831151031 87 37 0.0 1.0 0.00 0.00 0.00 79 1019.1
20260831150532 87 37 0.0 1.0 0.00 0.00 0.00 79 1019.1
20260831150034 87 37 0.0 0.0 0.00 0.00 0.00 80 1019.1
20260831145529 87 55 0.0 0.0 0.00 0.00 0.00 80 1019.0
20260831145038 87 55 0.0 1.0 0.00 0.00 0.00 80 1019.0
20260831144526 86 100 0.0 2.0 0.00 0.00 0.00 81 1018.9
20260831144024 86 116 0.0 0.0 0.00 0.00 0.00 83 1019.0
20260831143524 85 66 0.0 0.0 0.00 0.00 0.00 83 1018.8
20260831143021 84 65 0.0 0.0 0.00 0.00 0.00 84 1018.8
20260831142521 84 80 0.0 0.0 0.00 0.00 0.00 85 1018.7
20260831142019 84 80 0.0 0.0 0.00 0.00 0.00 85 1018.6
20260831141522 83 82 0.0 0.0 0.00 0.00 0.00 86 1018.6
20260831141020 83 35 0.0 2.0 0.00 0.00 0.00 87 1018.5
20260831140516 83 115 0.0 2.0 0.00 0.00 0.00 87 1018.4
20260831140017 82 73 0.0 2.0 0.00 0.00 0.00 88 1018.4
20260831135514 82 73 0.0 2.0 0.00 0.00 0.00 88 1018.3
20260831135011 81 41 0.0 0.0 0.00 0.00 0.00 89 1018.3
20260831134512 81 41 0.0 0.0 0.00 0.00 0.00 90 1018.3
20260831134008 81 43 0.0 0.0 0.00 0.00 0.00 90 1018.2
20260831133507 80 43 0.0 0.0 0.00 0.00 0.00 91 1018.1
20260831133006 80 42 0.0 0.0 0.00 0.00 0.00 91 1018.2
20260831132509 80 39 0.0 0.0 0.00 0.00 0.00 92 1018.1
20260831132003 79 40 0.0 0.0 0.00 0.00 0.00 92 1018.1
20260831131509 79 40 0.0 0.0 0.00 0.00 0.00 93 1018.1
20260831131002 79 40 0.0 0.0 0.00 0.00 0.00 94 1018.1
20260831130502 79 37 0.0 0.0 0.00 0.00 0.00 94 1018.3
20260831130002 78 215 0.0 0.0 0.00 0.00 0.00 94 1018.3
20260831125501 78 217 0.0 0.0 0.00 0.00 0.00 94 1018.2
20260831125003 78 217 0.0 0.0 0.00 0.00 0.00 95 1018.2
20260831124603 78 216 0.0 0.0 0.00 0.00 0.00 95 1018.2
20260831124059 78 213 0.0 0.0 0.00 0.00 0.00 95 1018.0
20260831123558 77 209 0.0 0.0 0.00 0.00 0.00 95 1018.1
20260831123058 77 207 0.0 0.0 0.00 0.00 0.00 95 1018.1
20260831122557 77 205 0.0 0.0 0.00 0.00 0.00 95 1017.8
20260831122057 76 202 0.0 0.0 0.00 0.00 0.00 95 1017.9
20260831121556 76 211 0.0 0.0 0.00 0.00 0.00 95 1017.9
20260831121055 76 213 0.0 0.0 0.00 0.00 0.00 95 1017.9
20260831120555 76 215 0.0 0.0 0.00 0.00 0.00 95 1017.9
20260831120143 76 215 0.0 0.0 0.00 0.00 0.00 94 1017.8
20260831115554 76 215 0.0 0.0 0.00 0.00 0.00 94 1017.8
20260831115054 76 215 0.0 0.0 0.00 0.00 0.00 94 1017.6
20260831114554 75 215 0.0 0.0 0.00 0.00 0.00 95 1017.6
20260831114053 75 215 0.0 0.0 0.00 0.00 0.00 94 1017.5
20260831113553 75 215 0.0 0.0 0.00 0.00 0.00 94 1017.5
20260831113057 75 215 0.0 0.0 0.00 0.00 0.00 94 1017.5
20260831112554 75 215 0.0 0.0 0.00 0.00 0.00 94 1017.5
20260831112051 75 215 0.0 0.0 0.00 0.00 0.00 94 1017.3
20260831111558 75 215 0.0 0.0 0.00 0.00 0.00 94 1017.3
20260831111050 75 215 0.0 0.0 0.00 0.00 0.00 94 1017.3
20260831110551 75 215 0.0 0.0 0.00 0.00 0.00 94 1017.2
20260831110050 75 215 0.0 0.0 0.00 0.00 0.00 94 1017.2
20260831105550 75 215 0.0 0.0 0.00 0.00 0.00 94 1017.0
20260831105049 75 215 0.0 0.0 0.00 0.00 0.00 94 1017.1
20260831104549 75 215 0.0 0.0 0.00 0.00 0.00 94 1017.0
20260831104049 75 215 0.0 0.0 0.00 0.00 0.00 94 1016.9
20260831103547 75 215 0.0 0.0 0.00 0.00 0.00 94 1016.9
20260831103050 75 215 0.0 0.0 0.00 0.00 0.00 94 1016.8
20260831102550 75 215 0.0 0.0 0.00 0.00 0.00 94 1016.8
20260831102048 75 215 0.0 0.0 0.00 0.00 0.00 94 1016.8
20260831101548 75 215 0.0 0.0 0.00 0.00 0.00 94 1016.7
20260831101047 75 215 0.0 0.0 0.00 0.00 0.00 94 1016.7
20260831100545 75 215 0.0 0.0 0.00 0.00 0.00 94 1016.6
20260831100050 76 215 0.0 0.0 0.00 0.00 0.00 94 1016.6
20260831095547 75 215 0.0 0.0 0.00 0.00 0.00 94 1016.7
20260831095045 76 215 0.0 0.0 0.00 0.00 0.00 94 1016.7
20260831094557 76 215 0.0 0.0 0.00 0.00 0.00 94 1016.7
20260831094047 76 215 0.0 0.0 0.00 0.00 0.00 94 1016.6
20260831093548 76 215 0.0 0.0 0.00 0.00 0.00 94 1016.7
20260831093045 76 215 0.0 0.0 0.00 0.00 0.00 94 1016.7
20260831092546 76 215 0.0 0.0 0.00 0.00 0.00 93 1016.8
20260831092046 76 215 0.0 0.0 0.00 0.00 0.00 93 1016.7
20260831091543 76 215 0.0 0.0 0.00 0.00 0.00 93 1016.5
20260831091043 76 215 0.0 0.0 0.00 0.00 0.00 93 1016.5
20260831090543 76 215 0.0 0.0 0.00 0.00 0.00 93 1016.4
20260831090043 76 214 0.0 0.0 0.00 0.00 0.00 93 1016.4
20260831085543 76 214 0.0 0.0 0.00 0.00 0.00 93 1016.3
20260831085041 76 215 0.0 0.0 0.00 0.00 0.00 93 1016.3
20260831084546 76 215 0.0 0.0 0.00 0.00 0.00 93 1016.3
20260831084040 76 215 0.0 0.0 0.00 0.00 0.00 93 1016.4
20260831083540 76 214 0.0 0.0 0.00 0.00 0.00 93 1016.3
20260831083050 76 213 0.0 0.0 0.00 0.00 0.00 93 1016.3
20260831082539 76 215 0.0 0.0 0.00 0.00 0.00 93 1016.3
20260831082039 76 214 0.0 0.0 0.00 0.00 0.00 93 1016.4
20260831081544 76 214 0.0 0.0 0.00 0.00 0.00 93 1016.4
20260831081037 77 214 0.0 0.0 0.00 0.00 0.00 93 1016.5
20260831080541 77 213 0.0 0.0 0.00 0.00 0.00 93 1016.6
20260831080037 77 214 0.0 0.0 0.00 0.00 0.00 93 1016.5
20260831075536 77 213 0.0 0.0 0.00 0.00 0.00 93 1016.6
20260831075035 77 213 0.0 0.0 0.00 0.00 0.00 93 1016.6
20260831074535 77 213 0.0 0.0 0.00 0.00 0.00 93 1016.8
20260831074035 77 213 0.0 0.0 0.00 0.00 0.00 93 1016.9
20260831073535 77 212 0.0 0.0 0.00 0.00 0.00 93 1016.7
20260831073034 77 211 0.0 0.0 0.00 0.00 0.00 93 1016.8
20260831072537 77 210 0.0 0.0 0.00 0.00 0.00 93 1017.1
20260831072036 77 211 0.0 0.0 0.00 0.00 0.00 93 1017.1
20260831071534 77 211 0.0 0.0 0.00 0.00 0.00 93 1017.2
20260831071033 77 204 0.0 5.0 0.00 0.00 0.00 93 1017.3
20260831070533 77 205 0.0 5.0 0.00 0.00 0.00 93 1017.2
20260831070050 77 63 0.0 0.0 0.00 0.00 0.00 93 1017.1
20260831065532 77 63 0.0 0.0 0.00 0.00 0.00 93 1017.1
20260831065031 77 63 0.0 0.0 0.00 0.00 0.00 93 1017.2
20260831064530 77 63 0.0 0.0 0.00 0.00 0.00 93 1017.1
20260831064030 77 63 0.0 0.0 0.00 0.00 0.00 93 1017.2
20260831063530 77 63 0.0 0.0 0.00 0.00 0.00 93 1017.3
20260831063029 77 63 0.0 0.0 0.00 0.00 0.00 93 1017.4
20260831062532 77 63 0.0 0.0 0.00 0.00 0.00 93 1017.5
20260831062029 77 63 0.0 0.0 0.00 0.00 0.00 93 1017.5
20260831061529 77 63 0.0 0.0 0.00 0.00 0.00 93 1017.5
20260831061029 77 63 0.0 0.0 0.00 0.00 0.00 92 1017.5
20260831060527 77 63 0.0 0.0 0.00 0.00 0.00 92 1017.5
20260831060026 77 63 0.0 0.0 0.00 0.00 0.00 92 1017.5
20260831055527 77 63 0.0 0.0 0.00 0.00 0.00 92 1017.5
20260831055030 77 62 0.0 0.0 0.00 0.00 0.00 92 1017.6
20260831054526 77 62 0.0 0.0 0.00 0.00 0.00 92 1017.6
20260831054026 77 62 0.0 0.0 0.00 0.00 0.00 92 1017.6
20260831053526 77 61 0.0 0.0 0.00 0.00 0.00 92 1017.7
20260831053025 78 65 0.0 0.0 0.00 0.00 0.00 92 1017.6
20260831052524 78 65 0.0 0.0 0.00 0.00 0.00 92 1017.5
20260831052024 78 65 0.0 0.0 0.00 0.00 0.00 92 1017.6
20260831051537 78 66 0.0 0.0 0.00 0.00 0.00 92 1017.6
20260831051024 78 66 0.0 0.0 0.00 0.00 0.00 92 1017.6
20260831050524 78 66 0.0 0.0 0.00 0.00 0.00 92 1017.6
20260831050024 78 66 0.0 0.0 0.00 0.00 0.00 92 1017.6
20260831045524 78 66 0.0 0.0 0.00 0.00 0.00 92 1017.5
20260831045022 78 66 0.0 0.0 0.00 0.00 0.00 92 1017.5
20260831044522 78 66 0.0 0.0 0.00 0.00 0.00 91 1017.4
20260831044021 78 66 0.0 0.0 0.00 0.00 0.00 91 1017.4
20260831043520 78 66 0.0 0.0 0.00 0.00 0.00 91 1017.4
20260831043020 79 66 0.0 0.0 0.00 0.00 0.00 91 1017.4
20260831042518 79 66 0.0 0.0 0.00 0.00 0.00 91 1017.4
20260831042018 79 66 0.0 0.0 0.00 0.00 0.00 91 1017.6
20260831041528 79 66 0.0 0.0 0.00 0.00 0.00 91 1017.5
20260831041023 79 66 0.0 0.0 0.00 0.00 0.00 91 1017.6
20260831040516 79 66 0.0 0.0 0.00 0.00 0.00 91 1017.8
20260831040035 79 66 0.0 0.0 0.00 0.00 0.00 91 1017.7
20260831035513 79 66 0.0 0.0 0.00 0.00 0.00 91 1017.7
20260831035015 79 65 0.0 0.0 0.00 0.00 0.00 91 1017.8
20260831034514 79 65 0.0 0.0 0.00 0.00 0.00 91 1017.9
20260831034013 79 65 0.0 0.0 0.00 0.00 0.00 91 1017.9
20260831033513 79 65 0.0 0.0 0.00 0.00 0.00 91 1018.0
20260831033013 79 65 0.0 0.0 0.00 0.00 0.00 91 1018.0
20260831032513 79 65 0.0 0.0 0.00 0.00 0.00 91 1018.0
20260831032012 79 65 0.0 0.0 0.00 0.00 0.00 90 1018.1
20260831031512 79 66 0.0 0.0 0.00 0.00 0.00 91 1018.1
20260831031012 79 66 0.0 0.0 0.00 0.00 0.00 91 1018.2
20260831030512 79 62 0.0 0.0 0.00 0.00 0.00 91 1018.2
20260831030012 79 62 0.0 1.0 0.00 0.00 0.00 91 1018.2
20260831025512 79 57 0.0 0.0 0.00 0.00 0.00 91 1018.2
20260831025013 79 57 0.0 1.0 0.00 0.00 0.00 90 1018.1
20260831024511 79 126 0.0 0.0 0.00 0.00 0.00 90 1018.2
20260831024014 80 126 0.0 0.0 0.00 0.00 0.00 90 1018.1
20260831023512 80 126 0.0 0.0 0.00 0.00 0.00 90 1018.1
20260831023022 80 126 0.0 0.0 0.00 0.00 0.00 90 1018.2
20260831022515 80 126 0.0 0.0 0.00 0.00 0.00 90 1018.2
20260831022011 80 126 0.0 0.0 0.00 0.00 0.00 90 1018.2
20260831021535 80 126 0.0 0.0 0.00 0.00 0.00 90 1018.1
20260831021012 80 126 0.0 0.0 0.00 0.00 0.00 90 1018.2
20260831020510 80 126 0.0 0.0 0.00 0.00 0.00 89 1018.2
20260831020010 80 126 0.0 0.0 0.00 0.00 0.00 89 1018.1
20260831015509 80 126 0.0 0.0 0.00 0.00 0.00 89 1018.2
20260831015012 80 126 0.0 0.0 0.00 0.00 0.00 89 1018.3
20260831014508 80 126 0.0 0.0 0.00 0.00 0.00 89 1018.3
20260831014008 80 126 0.0 2.0 0.00 0.00 0.00 88 1018.2
20260831013507 80 126 0.0 2.0 0.00 0.00 0.00 88 1018.2
20260831013007 80 126 0.0 1.0 0.00 0.00 0.00 88 1018.3
20260831012506 80 126 0.0 0.0 0.00 0.00 0.00 88 1018.3
20260831012007 80 126 0.0 0.0 0.00 0.00 0.00 87 1018.3
20260831011507 81 127 0.0 0.0 0.00 0.00 0.00 87 1018.2
20260831011005 81 127 0.0 0.0 0.00 0.00 0.00 87 1018.1
20260831010506 81 127 0.0 0.0 0.00 0.00 0.00 87 1018.1
20260831010015 81 127 0.0 0.0 0.00 0.00 0.00 87 1018.1
20260831005506 81 127 0.0 0.0 0.00 0.00 0.00 87 1018.1
20260831005005 81 127 0.0 0.0 0.00 0.00 0.00 86 1017.8
20260831004505 81 127 0.0 0.0 0.00 0.00 0.00 86 1017.8
20260831004004 81 127 0.0 0.0 0.00 0.00 0.00 86 1017.9
20260831003504 81 127 0.0 0.0 0.00 0.00 0.00 86 1017.8
20260831003004 81 127 0.0 0.0 0.00 0.00 0.00 86 1017.7
20260831002504 82 127 0.0 0.0 0.00 0.00 0.00 85 1017.7
20260831002004 82 127 0.0 0.0 0.00 0.00 0.00 85 1017.5
20260831001504 82 127 0.0 0.0 0.00 0.00 0.00 85 1017.3
20260831001004 82 127 0.0 0.0 0.00 0.00 0.00 85 1017.3
20260831000504 82 127 0.0 0.0 0.00 0.00 0.00 84 1017.4
20260831000005 82 127 0.0 0.0 0.00 0.00 0.00 84 1017.5
20260830235502 82 127 0.0 0.0 0.00 0.00 0.00 84 1017.5
20260830235002 82 127 0.0 0.0 0.00 0.00 0.00 84 1017.6
20260830234501 83 127 0.0 0.0 0.00 0.00 0.00 84 1017.6
20260830234002 83 127 0.0 2.0 0.00 0.00 0.00 84 1017.6
20260830233501 83 127 0.0 2.0 0.00 0.00 0.00 84 1017.6
20260830233002 83 123 0.0 2.0 0.00 0.00 0.00 84 1017.7
20260830232502 83 123 0.0 4.0 0.00 0.00 0.00 83 1017.5
20260830232002 83 123 2.0 4.0 0.00 0.00 0.00 83 1017.4
20260830231502 83 117 1.0 6.0 0.00 0.00 0.00 83 1017.3
20260830231002 84 118 1.0 6.0 0.00 0.00 0.00 83 1017.3
20260830230500 84 115 0.0 3.0 0.00 0.00 0.00 83 1017.2
20260830230100 84 127 0.0 3.0 0.00 0.00 0.00 84 1017.2
20260830225501 84 121 0.0 4.0 0.00 0.00 0.00 83 1017.2
20260830225100 84 121 0.0 4.0 0.00 0.00 0.00 83 1017.2
20260830224606 84 122 0.0 2.0 0.00 0.00 0.00 82 1017.1
20260830224100 84 122 0.0 4.0 0.00 0.00 0.00 82 1017.2
20260830223600 85 112 1.0 6.0 0.00 0.00 0.00 82 1017.3
20260830223103 85 99 1.0 3.0 0.00 0.00 0.00 82 1017.2
20260830222558 85 97 0.0 4.0 0.00 0.00 0.00 82 1017.2
20260830222059 85 116 0.0 5.0 0.00 0.00 0.00 81 1017.1
20260830221559 85 123 0.0 5.0 0.00 0.00 0.00 81 1017.1
20260830221059 85 130 0.0 4.0 0.00 0.00 0.00 81 1017.0
20260830220559 85 126 0.0 8.0 0.00 0.00 0.00 80 1016.8
20260830220121 85 120 2.0 8.0 0.00 0.00 0.00 81 1016.8
20260830215558 85 126 0.0 5.0 0.00 0.00 0.00 81 1016.7
20260830215105 85 127 0.0 4.0 0.00 0.00 0.00 81 1016.7
20260830214602 85 131 1.0 4.0 0.00 0.00 0.00 81 1016.7
20260830214100 85 108 1.0 6.0 0.00 0.00 0.00 81 1016.6
20260830213557 85 117 1.0 6.0 0.00 0.00 0.00 80 1016.7
20260830213057 85 81 0.0 2.0 0.00 0.00 0.00 80 1016.6
20260830212557 86 109 0.0 4.0 0.00 0.00 0.00 80 1016.5
20260830212057 86 127 0.0 4.0 0.00 0.00 0.00 80 1016.5
20260830211602 85 90 0.0 1.0 0.00 0.00 0.00 80 1016.6
20260830211059 85 88 0.0 9.0 0.00 0.00 0.00 81 1016.6
20260830210555 85 133 0.0 7.0 0.00 0.00 0.00 80 1016.8
20260830210055 85 91 0.0 7.0 0.00 0.00 0.00 80 1016.8
20260830205555 86 126 1.0 5.0 0.00 0.00 0.00 78 1016.9
20260830205054 86 80 1.0 4.0 0.00 0.00 0.00 78 1016.9
20260830204554 86 134 1.0 7.0 0.00 0.00 0.00 78 1017.0
20260830204057 86 121 3.0 8.0 0.00 0.00 0.00 78 1016.9
20260830203655 86 107 3.0 8.0 0.00 0.00 0.00 77 1016.9
20260830203106 86 121 1.0 5.0 0.00 0.00 0.00 78 1016.9
20260830202551 86 123 1.0 6.0 0.00 0.00 0.00 79 1017.0
20260830202051 85 126 0.0 6.0 0.00 0.00 0.00 75 1017.1
20260830201551 85 128 0.0 4.0 0.00 0.00 0.00 75 1017.2
20260830201050 85 130 1.0 5.0 0.00 0.00 0.00 75 1017.3
20260830200550 84 106 1.0 5.0 0.00 0.00 0.00 76 1017.3
20260830200053 85 126 1.0 9.0 0.00 0.00 0.00 75 1017.5
20260830195550 85 125 2.0 9.0 0.00 0.00 0.00 75 1017.6
20260830195049 86 120 2.0 9.0 0.00 0.00 0.00 75 1017.7
20260830194549 86 115 1.0 4.0 0.00 0.00 0.00 76 1017.7
20260830194051 86 117 1.0 7.0 0.00 0.00 0.00 75 1017.7
20260830193548 87 89 1.0 10.0 0.00 0.00 0.00 75 1017.8
20260830193048 88 78 2.0 10.0 0.00 0.00 0.00 74 1017.7
20260830192548 89 111 3.0 8.0 0.00 0.00 0.00 72 1017.7
20260830192047 89 119 2.0 8.0 0.00 0.00 0.00 72 1017.7
20260830191548 90 91 1.0 5.0 0.00 0.00 0.00 71 1017.7
20260830191047 91 9 1.0 8.0 0.00 0.00 0.00 71 1017.6
20260830190548 93 103 2.0 8.0 0.00 0.00 0.00 68 1017.7
20260830190046 94 91 1.0 3.0 0.00 0.00 0.00 65 1017.5
20260830185547 94 84 1.0 6.0 0.00 0.00 0.00 61 1017.5
20260830185145 94 124 1.0 5.0 0.00 0.00 0.00 59 1017.5
20260830184542 94 82 1.0 4.0 0.00 0.00 0.00 60 1017.5
20260830184042 94 44 0.0 3.0 0.00 0.00 0.00 60 1017.5
20260830183544 94 50 0.0 4.0 0.00 0.00 0.00 62 1017.6